Regional Weather Roundup
Issued by NWS Northern Indiana

Home | Current Version | Previous Version | Graphics & Text | Print | Product List | Glossary On
Versions: 1 2 3 4 5 6 7 8 9 10 11 12 13 14 15 16 17 18 19 20 21 22 23 24 25 26 27 28 29 30 31 32 33 34 35 36 37 38 39 40 41 42 43 44 45 46 47 48 49 50
000
ASUS43 KIWX 221610
RWRIWX

KIWX WEATHER ROUNDUP
NATIONAL WEATHER SERVICE NORTHERN INDIANA
1200 PM EDT WED OCT 22 2014

NOTE: "FAIR" INDICATES FEW OR NO CLOUDS BELOW 12,000 FEET WITH NO
SIGNIFICANT WEATHER AND/OR OBSTRUCTIONS TO VISIBILITY.

* THESE STATIONS ARE NOT UNDER NWS QUALITY CONTROL. THEY ALSO MAY NOT
  REPORT WEATHER SUCH AS PRECIPITATION OR FOG.

INZ001>027-221700-
NORTHERN INDIANA

CITY           SKY/WX    TMP DP  RH WIND       PRES   REMARKS
GARY*          MOSUNNY   50  36  57 CALM      30.38S
VALPARAISO     SUNNY     49  37  63 E8        30.38R
MICHIGAN CITY* SUNNY     48  34  57 E3        30.38S
LAPORTE*       SUNNY     49  39  66 N3        30.38R
KNOX*          SUNNY     48  37  64 E3        30.36F
SOUTH BEND     SUNNY     49  37  63 E8        30.38S
ELKHART*       PTSUNNY   48  37  66 E6        30.38R
GOSHEN         PTSUNNY   48  39  71 NE9       30.36S
MONTICELLO*    SUNNY     50  37  61 E8        30.35S
LOGANSPORT*    SUNNY     50  36  57 CALM      30.36S
ROCHESTER*     MOSUNNY   52  41  66 N7        30.36S
WARSAW*        SUNNY     46  37  71 NE5       30.35S
ANGOLA*        CLOUDY    45  32  61 NE3       30.35S
FORT WAYNE     PTSUNNY   49  40  71 NE8       30.36R
HUNTINGTON*    MOSUNNY   49  40  71 N6        30.34S
PERU/GRISSOM   SUNNY     49  43  79 VRB5      30.35R
MARION*        PTSUNNY   48  39  69 E8        30.35S

$$
INZ028>050-221700-
CENTRAL INDIANA

CITY           SKY/WX    TMP DP  RH WIND       PRES   REMARKS
LAFAYETTE      SUNNY     49  39  68 E6        30.36S
KOKOMO*        SUNNY     50 N/A N/A NE7       30.35S
MUNCIE*        CLOUDY    48  40  73 NE3       30.34R
INDIANAPOLIS   MOSUNNY   50  38  63 VRB5      30.33R

$$
MIZ043>046-050>051-056>058-064>065-071>073-077>080-221700-
SOUTHWEST LOWER MICHIGAN

CITY           SKY/WX    TMP DP  RH WIND       PRES   REMARKS
BATTLE CREEK   CLOUDY    44  37  76 NE9       30.38R
BENTON HARBOR  SUNNY     47  37  68 VRB5      30.38S
COLDWATER*     CLOUDY    45  40  82 NE6       30.36S
HILLSDALE*     CLOUDY    44  40  85 N7        30.34S
HOLLAND        MOSUNNY   48  37  65 E5        30.40R
GRAND RAPIDS   PTSUNNY   46  37  71 E9        30.39S
KALAMAZOO      CLOUDY    43  36  76 NE3       30.39R
STURGIS*       CLOUDY    43  37  81 NE3       30.37R
THREE RIVERS*  CLOUDY    44  37  77 E6        30.38S

$$
OHZ001>008-015>018-024>025-221700-
NORTHWEST OHIO

CITY           SKY/WX    TMP DP  RH WIND       PRES   REMARKS
WAUSEON*       CLOUDY    46  39  76 N5G12     30.35S
DEFIANCE       CLOUDY    47  39  74 NE9       30.36R
FINDLAY        CLOUDY    49  41  74 N12       30.31S
TOLEDO EXPRESS CLOUDY    46  39  76 N9        30.34R
TOLEDO METCALF CLOUDY    49  39  68 N9        30.34R
LIMA           CLOUDY    48  40  73 N8        30.32R

$$
AND FOR LAKE MICHIGAN COASTAL AND OPEN LAKE BUOY OBSERVATIONS

STATION/POSITION TEMP    WIND        PRES    VSBY  WAVE
                 AIR SEA DIR/SP/G                  HT/PER
                 (F)     (DEG/KT/KT) (MB)    (MI)  (FT/S)
CALUMET HARBOR    47     110/  4/  6 1027.3F
MICHIGAN CITY     47      30/  4/  6   N/A
SAINT JOSEPH      48                 1029.1R
SOUTH LAKE BUOY   47 54   90/  6/  8 1029.4R         2/ 5
SAINT JOSEPH CG                      1029.0R     6   1

$$
&&



USA.gov is the U.S. government's official web portal to all federal, state and local government web resources and services.